Weather in Arzubikha

Russia / Vologda Oblast     60°09′30″N   40°34′24″E
temp.,
°C
wind,
m/s
gust,
m/s
humid.,
%
clouds,
%
prec.,
mm/h
press.,
hPa
HPBL,
m
8 may, sat
sat800:00+2ssw26925 0.0 1011118
03:00+2s27945 0.0 1012124
06:00+4sse2890100 0.0 1012236
09:00+11sse486315 0.0 1011775
12:00+14s6114298 0.0 10102622
15:00+14s51250100 0.0 10092137
18:00+9sse51277100 0.4 10091426
21:00+7se51491100 3.3 10071307
9 may, sun
sun900:00+7sse41195100 4.1 10051241
03:00+6ene2698100 8.8 1003343
06:00+7n1299100 4.9 100281
09:00+6nw4897100 7.6 1003621
12:00+3nw51197100 4.0 1006459
15:00+5nnw41092100 7.3 1010887
18:00+6nw4117888 0.2 10131261
21:00+3w25885 0.2 101687
10 may, mon
mon1000:00+1wnw312850 0.0 1019274
03:000w29915 0.0 1022193
06:00+3w27790 0.0 1024188
09:00+9wsw355199 0.0 1025812
12:00+12sw4744100 0.0 10252127
15:00+12sw475174 0.0 10261758
18:00+11ssw496165 0.0 1026790
21:00+9ssw31077100 0.0 1027498
11 may, tue
tue1100:00+8ssw298384 0.0 1028311
03:00+7ssw3118577 0.0 1029297
06:00+9sw310838 0.0 1029273
09:00+15sw476599 0.0 1029596
12:00+18sw575623 0.0 10291200
15:00+20sw565294 0.0 10281504
18:00+18sw366397 0.0 1029942
21:00+12ssw27895 0.0 1029126
12 may, wed
wed1200:00+10ssw27923 0.0 1030131
03:00+8ssw27953 0.0 1031130
06:00+11ssw24820 0.0 1031133
09:00+17ssw34570 0.0 1030707
12:00+20s34453 0.0 10291260
15:00+21s34432 0.0 10281488
18:00+20s24545 0.0 1027574
21:00+13s22800 0.0 102817